Madison, MN

4:49 AM CST on December 06, 2019 (GMT -0600)
Madison-Lac Qui Parle County

Weather History for KDXX - October, 2019

Change the Weather History Date:

Saturday, October 19, 2019

  Actual Average (WUND) Record (WUND)
Temperature  
Mean Temperature 54 °F -  
Max Temperature 66 °F - - (-1)
Min Temperature 42 °F - - (-1)
Degree Days  
Heating Degree Days 11    
Growing Degree Days 4 (Base 50)    
Moisture  
Dew Point 36 °F    
Average Humidity 53    
Maximum Humidity 76    
Minimum Humidity 23    
Precipitation  
Precipitation 0.00 in - - ()
Sea Level Pressure  
Sea Level Pressure 29.68 in    
Wind  
Wind Speed 9 mph (West)    
Max Wind Speed 18 mph    
Max Gust Speed 26 mph    
Visibility 10 miles    
Events      
Averages and records for this station are not official NWS values.
T = Trace of Precipitation, MM = Missing Value Source: NWS Daily Summary

Daily Weather History Graph

Daily Weather History Graph

Search for Another Location

Airport or City:

Astronomy

Oct. 19, 2019 Rise Set
Actual Time 7:45 AM CDT 6:33 PM CDT
Civil Twilight 7:15 AM CDT 7:03 PM CDT
Nautical Twilight 6:41 AM CDT 7:37 PM CDT
Astronomical Twilight 6:07 AM CDT 8:10 PM CDT
Moon 10:32 PM CDT (10/19) 1:29 PM CDT (10/19)
Length of Visible Light 11h 47m
Length of Day
10h 47m
Waning Gibbous, 69% of the Moon is Illuminated
Oct 19
Waning Gibbous
Oct 21
Last Quarter
Oct 27
New
Nov 4
First Quarter
Nov 12
Full

Hourly Weather History & Observations

Time (CDT) Temp. Windchill Dew Point Humidity Pressure Visibility Wind Dir Wind Speed Gust Speed Precip Events Conditions
12:15 AM 57.2 °F - 42.8 °F 59% 29.57 in 10.0 mi WNW 13.8 mph 19.6 mph N/A   Scattered Clouds
12:20 AM 57.2 °F - 42.8 °F 59% 29.57 in 10.0 mi WNW 13.8 mph - N/A   Scattered Clouds
12:37 AM 57.2 °F - 42.8 °F 59% 29.60 in 10.0 mi West 11.5 mph - N/A   Scattered Clouds
12:56 AM 55.4 °F - 42.8 °F 63% 29.61 in 10.0 mi WNW 11.5 mph 17.3 mph N/A   Scattered Clouds
1:15 AM 55.4 °F - 41.0 °F 58% 29.61 in 10.0 mi WNW 10.4 mph - N/A   Scattered Clouds
1:16 AM 55.4 °F - 41.0 °F 58% 29.61 in 10.0 mi WNW 9.2 mph - N/A   Scattered Clouds
1:35 AM 55.4 °F - 41.0 °F 58% 29.61 in 10.0 mi WNW 10.4 mph - N/A   Light Drizzle
1:36 AM 55.4 °F - 41.0 °F 58% 29.61 in 10.0 mi WNW 9.2 mph - N/A   Light Drizzle
1:58 AM 55.4 °F - 41.0 °F 58% 29.62 in 10.0 mi West 6.9 mph - N/A   Scattered Clouds
2:16 AM 53.6 °F - 42.8 °F 67% 29.63 in 10.0 mi West 6.9 mph - N/A   Scattered Clouds
2:35 AM 53.6 °F - 42.8 °F 67% 29.63 in 10.0 mi West 6.9 mph - N/A   Scattered Clouds
2:55 AM 53.6 °F - 42.8 °F 67% 29.64 in 10.0 mi West 6.9 mph - N/A   Clear
2:56 AM 53.6 °F - 42.8 °F 67% 29.64 in 10.0 mi West 6.9 mph - N/A   Clear
3:19 AM 51.8 °F - 42.8 °F 71% 29.63 in 10.0 mi West 6.9 mph - N/A   Clear
3:36 AM 51.8 °F - 42.8 °F 71% 29.63 in 10.0 mi West 6.9 mph - N/A   Clear
3:56 AM 51.8 °F - 42.8 °F 71% 29.63 in 10.0 mi West 8.1 mph - N/A   Clear
4:15 AM 51.8 °F - 42.8 °F 71% 29.63 in 10.0 mi West 5.8 mph - N/A   Clear
4:16 AM 51.8 °F - 42.8 °F 71% 29.63 in 10.0 mi West 6.9 mph - N/A   Clear
4:35 AM 51.8 °F - 42.8 °F 71% 29.63 in 10.0 mi West 6.9 mph - N/A   Clear
4:39 AM 51.8 °F - 42.8 °F 71% 29.63 in 10.0 mi West 6.9 mph - N/A   Clear
4:57 AM 51.8 °F - 41.0 °F 67% 29.64 in 10.0 mi West 6.9 mph - N/A   Clear
5:16 AM 51.8 °F - 41.0 °F 67% 29.64 in 10.0 mi West 6.9 mph - N/A   Clear
5:35 AM 50.0 °F - 41.0 °F 71% 29.64 in 10.0 mi West 6.9 mph - N/A   Clear
5:36 AM 50.0 °F - 41.0 °F 71% 29.65 in 10.0 mi West 8.1 mph - N/A   Clear
5:55 AM 50.0 °F - 39.2 °F 66% 29.65 in 10.0 mi WSW 5.8 mph - N/A   Clear
5:56 AM 50.0 °F - 39.2 °F 66% 29.65 in 10.0 mi WSW 5.8 mph - N/A   Clear
6:18 AM 48.2 °F - 39.2 °F 71% 29.65 in 10.0 mi West 6.9 mph - N/A   Clear
6:36 AM 50.0 °F - 39.2 °F 66% 29.65 in 10.0 mi West 6.9 mph - N/A   Clear
6:55 AM 48.2 °F - 39.2 °F 71% 29.66 in 10.0 mi West 6.9 mph - N/A   Clear
7:15 AM 48.2 °F - 39.2 °F 71% 29.67 in 10.0 mi West 6.9 mph - N/A   Clear
7:16 AM 48.2 °F - 39.2 °F 71% 29.67 in 10.0 mi West 8.1 mph - N/A   Clear
7:35 AM 46.4 °F 43.5 °F 39.2 °F 76% 29.67 in 10.0 mi West 5.8 mph - N/A   Clear
7:40 AM 46.4 °F 44.3 °F 39.2 °F 76% 29.67 in 10.0 mi West 4.6 mph - N/A   Clear
7:57 AM 46.4 °F 42.9 °F 39.2 °F 76% 29.68 in 10.0 mi West 6.9 mph - N/A   Clear
8:15 AM 46.4 °F 42.9 °F 37.4 °F 71% 29.69 in 10.0 mi West 6.9 mph - N/A   Clear
8:35 AM 46.4 °F 43.5 °F 37.4 °F 71% 29.69 in 10.0 mi West 5.8 mph - N/A   Clear
8:36 AM 46.4 °F 43.5 °F 37.4 °F 71% 29.69 in 10.0 mi West 5.8 mph - N/A   Clear
8:55 AM 48.2 °F - 37.4 °F 66% 29.69 in 10.0 mi West 6.9 mph - N/A   Clear
8:56 AM 48.2 °F - 37.4 °F 66% 29.69 in 10.0 mi West 6.9 mph - N/A   Clear
9:18 AM 51.8 °F - 39.2 °F 62% 29.69 in 10.0 mi West 6.9 mph - N/A   Clear
9:37 AM 53.6 °F - 39.2 °F 58% 29.70 in 10.0 mi West 6.9 mph - N/A   Clear
9:56 AM 55.4 °F - 39.2 °F 54% 29.70 in 10.0 mi West 8.1 mph - N/A   Clear
10:15 AM 57.2 °F - 37.4 °F 48% 29.71 in 10.0 mi WNW 12.7 mph - N/A   Clear
10:35 AM 57.2 °F - 37.4 °F 48% 29.71 in 10.0 mi WNW 10.4 mph - N/A   Clear
10:39 AM 57.2 °F - 37.4 °F 48% 29.72 in 10.0 mi WNW 10.4 mph 16.1 mph N/A   Clear
10:57 AM 59.0 °F - 37.4 °F 45% 29.72 in 10.0 mi WNW 8.1 mph - N/A   Clear
11:16 AM 60.8 °F - 37.4 °F 42% 29.71 in 10.0 mi WNW 8.1 mph - N/A   Clear
11:35 AM 60.8 °F - 37.4 °F 42% 29.71 in 10.0 mi West 5.8 mph - N/A   Clear
11:36 AM 60.8 °F - 37.4 °F 42% 29.71 in 10.0 mi West 5.8 mph - N/A   Clear
11:55 AM 62.6 °F - 37.4 °F 39% 29.71 in 10.0 mi WNW 9.2 mph - N/A   Clear
11:56 AM 62.6 °F - 37.4 °F 39% 29.71 in 10.0 mi WNW 10.4 mph - N/A   Clear
12:18 PM 62.6 °F - 35.6 °F 37% 29.71 in 10.0 mi NW 10.4 mph 16.1 mph N/A   Clear
12:36 PM 64.4 °F - 35.6 °F 34% 29.71 in 10.0 mi WNW 10.4 mph - N/A   Clear
12:55 PM 64.4 °F - 33.8 °F 32% 29.71 in 10.0 mi WNW 10.4 mph - N/A   Clear
12:56 PM 64.4 °F - 33.8 °F 32% 29.71 in 10.0 mi WNW 10.4 mph - N/A   Clear
1:15 PM 64.4 °F - 35.6 °F 34% 29.69 in 10.0 mi WNW 10.4 mph 17.3 mph N/A   Clear
1:16 PM 64.4 °F - 35.6 °F 34% 29.69 in 10.0 mi West 10.4 mph 17.3 mph N/A   Clear
1:39 PM 66.2 °F - 35.6 °F 32% 29.69 in 10.0 mi WNW 8.1 mph 17.3 mph N/A   Clear
1:58 PM 66.2 °F - 33.8 °F 30% 29.69 in 10.0 mi West 10.4 mph 17.3 mph N/A   Clear
2:15 PM 66.2 °F - 32.0 °F 28% 29.68 in 10.0 mi West 15.0 mph 19.6 mph N/A   Clear
2:35 PM 66.2 °F - 32.0 °F 28% 29.68 in 10.0 mi NW 13.8 mph 19.6 mph N/A   Clear
2:36 PM 66.2 °F - 32.0 °F 28% 29.68 in 10.0 mi WNW 13.8 mph 19.6 mph N/A   Clear
2:55 PM 66.2 °F - 30.2 °F 26% 29.67 in 10.0 mi West 11.5 mph 17.3 mph N/A   Clear
2:56 PM 66.2 °F - 30.2 °F 26% 29.67 in 10.0 mi West 12.7 mph 20.7 mph N/A   Clear
3:18 PM 66.2 °F - 26.6 °F 23% 29.67 in 10.0 mi West 18.4 mph - N/A   Clear
3:37 PM 66.2 °F - 26.6 °F 23% 29.67 in 10.0 mi West 18.4 mph 26.5 mph N/A   Clear
3:56 PM 64.4 °F - 26.6 °F 24% 29.67 in 10.0 mi WNW 15.0 mph 21.9 mph N/A   Clear
4:15 PM 64.4 °F - 26.6 °F 24% 29.68 in 10.0 mi West 12.7 mph 23.0 mph N/A   Clear
4:16 PM 64.4 °F - 26.6 °F 24% 29.68 in 10.0 mi West 15.0 mph 23.0 mph N/A   Clear
4:35 PM 64.4 °F - 28.4 °F 26% 29.68 in 10.0 mi WNW 12.7 mph 17.3 mph N/A   Clear
4:40 PM 64.4 °F - 28.4 °F 26% 29.68 in 10.0 mi West 15.0 mph 19.6 mph N/A   Clear
4:57 PM 64.4 °F - 30.2 °F 28% 29.68 in 10.0 mi West 10.4 mph - N/A   Clear
5:15 PM 64.4 °F - 28.4 °F 26% 29.69 in 10.0 mi West 11.5 mph 20.7 mph N/A   Clear
5:35 PM 62.6 °F - 28.4 °F 27% 29.69 in 10.0 mi West 10.4 mph - N/A   Clear
5:55 PM 60.8 °F - 28.4 °F 29% 29.69 in 10.0 mi West 6.9 mph - N/A   Clear
5:56 PM 60.8 °F - 28.4 °F 29% 29.69 in 10.0 mi West 6.9 mph - N/A   Clear
6:19 PM 57.2 °F - 30.2 °F 36% 29.69 in 10.0 mi West 5.8 mph - N/A   Clear
6:37 PM 57.2 °F - 30.2 °F 36% 29.70 in 7.0 mi West 5.8 mph - N/A   Clear
6:56 PM 55.4 °F - 30.2 °F 38% 29.71 in 10.0 mi WSW 4.6 mph - N/A   Clear
7:15 PM 53.6 °F - 32.0 °F 44% 29.72 in 10.0 mi West 3.5 mph - N/A   Clear
7:16 PM 51.8 °F - 32.0 °F 47% 29.71 in 10.0 mi West 3.5 mph - N/A   Clear
7:35 PM 51.8 °F - 32.0 °F 47% 29.72 in 10.0 mi WSW 4.6 mph - N/A   Clear
7:40 PM 53.6 °F - 30.2 °F 41% 29.72 in 10.0 mi WSW 4.6 mph - N/A   Clear
7:58 PM 51.8 °F - 32.0 °F 47% 29.73 in 10.0 mi WSW 4.6 mph - N/A   Clear
8:15 PM 50.0 °F - 33.8 °F 54% 29.73 in 10.0 mi WSW 4.6 mph - N/A   Clear
8:35 PM 48.2 °F - 33.8 °F 58% 29.74 in 10.0 mi WSW 6.9 mph - N/A   Clear
8:36 PM 48.2 °F - 33.8 °F 58% 29.74 in 10.0 mi WSW 6.9 mph - N/A   Clear
8:55 PM 50.0 °F - 33.8 °F 54% 29.73 in 10.0 mi WSW 4.6 mph - N/A   Clear
9:18 PM 46.4 °F 44.3 °F 33.8 °F 62% 29.73 in 10.0 mi WSW 4.6 mph - N/A   Clear
9:37 PM 46.4 °F 44.3 °F 33.8 °F 62% 29.73 in 10.0 mi SW 4.6 mph - N/A   Clear
9:55 PM 44.6 °F 42.2 °F 35.6 °F 71% 29.73 in 10.0 mi SW 4.6 mph - N/A   Clear
9:56 PM 44.6 °F 41.4 °F 35.6 °F 71% 29.73 in 10.0 mi SW 5.8 mph - N/A   Clear
10:15 PM 44.6 °F 41.4 °F 35.6 °F 71% 29.73 in 10.0 mi SW 5.8 mph - N/A   Clear
10:16 PM 44.6 °F 41.4 °F 33.8 °F 66% 29.73 in 10.0 mi SW 5.8 mph - N/A   Clear
10:35 PM 44.6 °F 41.4 °F 35.6 °F 71% 29.73 in 10.0 mi SW 5.8 mph - N/A   Clear
10:57 PM 44.6 °F 41.4 °F 35.6 °F 71% 29.73 in 10.0 mi SW 5.8 mph - N/A   Clear
11:35 PM 44.6 °F 42.2 °F 35.6 °F 71% 29.74 in 10.0 mi SW 4.6 mph - N/A   Clear
11:36 PM 42.8 °F 40.1 °F 35.6 °F 76% 29.74 in 10.0 mi SW 4.6 mph - N/A   Clear
11:55 PM 44.6 °F 42.2 °F 35.6 °F 71% 29.73 in 10.0 mi SW 4.6 mph - N/A   Clear
11:56 PM 44.6 °F 42.2 °F 35.6 °F 71% 29.73 in 10.0 mi SW 4.6 mph - N/A   Clear